Weather History for Iliamna, AK

Change the Weather History Date:

Sunday, January 20, 2013

  Actual Average Record
Temperature  
Mean Temperature 36 °F -  
Max Temperature 39 °F 24 °F 45 °F (2014)
Min Temperature 34 °F 12 °F -40 °F (1947)
Degree Days  
Heating Degree Days 28    
Moisture  
Dew Point 32 °F    
Average Humidity 78    
Maximum Humidity 85    
Minimum Humidity 60    
Precipitation  
Precipitation 0.00 in - - ()
Sea Level Pressure  
Sea Level Pressure 29.74 in    
Wind  
Wind Speed 16 mph (East)    
Max Wind Speed 32 mph    
Max Gust Speed 44 mph    
Visibility 10 miles    
Events      
Averages and records for this station are not official NWS values.
T = Trace of Precipitation, MM = Missing Value Source: NWS Daily Summary

Daily Weather History Graph

Daily Weather History Graph

Search for Another Location

Airport:

Trip Planner

Search our weather history database for the weather conditions in past years. The results will help you decide how hot, cold, wet, or windy it might be!

Date:

Astronomy

Jan. 20, 2013 Rise Set
Actual Time 9:55 AM AKST 5:06 PM AKST
Civil Twilight 9:05 AM AKST 5:56 PM AKST
Nautical Twilight 8:13 AM AKST 6:49 PM AKST
Astronomical Twilight 7:24 AM AKST 7:38 PM AKST
Moon 12:17 PM AKST (1/20) 4:32 AM AKST (1/20)
Length of Visible Light 8h 51m
Length of Day
7h 10m
Waxing Gibbous, 67% of the Moon is Illuminated
Jan 20
Waxing Gibbous
Jan 26
Full
Feb 3
Last Quarter
Feb 9
New
Feb 17
First Quarter

Hourly Weather History & Observations

Time (AKST) Temp. Windchill Dew Point Humidity Pressure Visibility Wind Dir Wind Speed Gust Speed Precip Events Conditions
12:53 AM 39.0 °F 28.0 °F 30.9 °F 73% 29.58 in 10.0 mi East 25.3 mph 35.7 mph N/A   Mostly Cloudy
1:53 AM 39.0 °F 26.8 °F 30.9 °F 73% 29.59 in 10.0 mi East 32.2 mph 43.7 mph N/A   Mostly Cloudy
3:53 AM 39.0 °F 30.6 °F 32.0 °F 76% 29.70 in 10.0 mi East 15.0 mph 25.3 mph N/A   Overcast
4:53 AM 39.0 °F 29.0 °F 32.0 °F 76% 29.70 in 10.0 mi East 20.7 mph 29.9 mph N/A   Mostly Cloudy
5:53 AM 39.0 °F 28.3 °F 33.1 °F 79% 29.70 in 10.0 mi East 24.2 mph 32.2 mph N/A   Mostly Cloudy
6:53 AM 37.9 °F 31.5 °F 33.1 °F 83% 29.72 in 10.0 mi East 9.2 mph - N/A   Mostly Cloudy
7:53 AM 37.0 °F 29.8 °F 32.0 °F 82% 29.72 in 10.0 mi East 10.4 mph - N/A   Scattered Clouds
8:53 AM 37.9 °F 30.5 °F 33.1 °F 83% 29.74 in 10.0 mi East 11.5 mph - N/A   Overcast
9:53 AM 37.0 °F 28.5 °F 32.0 °F 82% 29.75 in 10.0 mi East 13.8 mph - N/A   Mostly Cloudy
10:53 AM 37.9 °F 31.5 °F 32.0 °F 79% 29.76 in 10.0 mi ESE 9.2 mph - N/A   Scattered Clouds
11:53 AM 39.0 °F 32.3 °F 32.0 °F 76% 29.78 in 10.0 mi ESE 10.4 mph - N/A   Scattered Clouds
12:53 PM 39.0 °F 31.4 °F 32.0 °F 76% 29.76 in 10.0 mi East 12.7 mph - N/A   Partly Cloudy
1:53 PM 37.9 °F 30.5 °F 32.0 °F 79% 29.77 in 10.0 mi ESE 11.5 mph - N/A   Mostly Cloudy
2:53 PM 39.0 °F 34.0 °F 32.0 °F 76% 29.77 in 10.0 mi SE 6.9 mph - N/A   Mostly Cloudy
3:53 PM 39.0 °F 32.8 °F 32.0 °F 76% 29.77 in 10.0 mi ESE 9.2 mph - N/A   Mostly Cloudy
4:53 PM 37.0 °F 31.0 °F 30.9 °F 79% 29.78 in 10.0 mi SE 8.1 mph - N/A   Mostly Cloudy
5:53 PM 36.0 °F 29.6 °F 30.9 °F 82% 29.79 in 10.0 mi East 8.1 mph - N/A   Mostly Cloudy
6:53 PM 35.1 °F 29.3 °F 30.9 °F 85% 29.79 in 10.0 mi ENE 6.9 mph - N/A   Mostly Cloudy
7:53 PM 35.1 °F 29.3 °F 30.9 °F 85% 29.79 in 10.0 mi East 6.9 mph - N/A   Overcast
8:53 PM 35.1 °F 27.9 °F 30.9 °F 85% 29.78 in 10.0 mi ENE 9.2 mph - N/A   Overcast
9:53 PM 36.0 °F 30.3 °F 30.9 °F 82% 29.80 in 10.0 mi ESE 6.9 mph - N/A   Scattered Clouds
10:53 PM 37.0 °F 31.0 °F 30.9 °F 79% 29.80 in 10.0 mi East 8.1 mph - N/A   Overcast